WGS F4 (USA 233)

Last updated on Sept. 17, 2019, 4:08 a.m. UTC

1 38070U 12003A   19259.06286574 -.00000223  00000-0  00000+0 0  9995
2 38070   0.0132 177.9526 0000684 341.6278 306.1953  1.00271993 27998
UTC
Height (km)
Latitude
Longitude
Inclination
Orbital Period
UTC large
Height (km)
Speed (km/s)
/
Latitude / Longitude
Inclination (degrees)
Orbital Period (minutes)
Azimuth
Elevation
Range (km)
Doppler Factor
iOS Compass Heading
iOS Angle

Next 30 passes for location: Hong Kong

Rise time Rise Azimuth (degrees) Set time Set Azimuth (degrees) Duration Max altitude (degrees)

No matching passes for this satellites